Regional Weather Roundup
Issued by NWS

Home | Current Version | Previous Version | Text Only | Print | Product List | Glossary Off
Versions: 1 2 3 4 5 6 7 8 9 10 11 12 13 14 15 16 17 18 19 20 21 22 23 24 25 26 27 28 29 30 31 32 33 34 35 36 37 38 39 40 41 42 43 44 45 46 47 48 49 50

000
ASUS43 KBIS 231020
RWRND

NORTH DAKOTA REGIONAL WEATHER ROUNDUP
NATIONAL WEATHER SERVICE BISMARCK ND
500 AM CDT WED APR 23 2014

NOTE: "FAIR" INDICATES FEW OR NO CLOUDS BELOW 12,000 FEET WITH NO
SIGNIFICANT WEATHER AND/OR OBSTRUCTIONS TO VISIBILITY.


NDZ001>003-009>011-017-231100-
NORTHWEST NORTH DAKOTA

CITY           SKY/WX    TMP DP  RH WIND       PRES   REMARKS
WILLISTON      CLOUDY    51  36  56 SE21G36   29.45F
MINOT          CLOUDY    48  35  60 E17       29.67F
MINOT AFB      LGT RAIN  47  36  65 SE23      29.67S
$$

NDZ018>021-031>035-040>046-231100-
SOUTHWEST NORTH DAKOTA

CITY           SKY/WX    TMP DP  RH WIND       PRES   REMARKS
BISMARCK       CLOUDY    51  40  65 E21G31    29.65F
DICKINSON      CLOUDY    48  37  65 E22G33    29.46F
GARRISON         N/A     49  45  86 SE22      29.62F
HETTINGER ARPT CLOUDY    51  34  52 E21G28    29.45F
$$

NDZ004>008-012>016-024-026-027-054-231100-
NORTHEAST NORTH DAKOTA

CITY           SKY/WX    TMP DP  RH WIND       PRES   REMARKS
GRAND FORKS    MOCLDY    41  28  60 SE13      29.94S
GRND FRKS AFB  CLOUDY    40  29  65 SE12      29.93F
DEVILS LAKE    CLOUDY    45  28  53 SE22G31   29.81F
$$

NDZ022-023-025-028>030-036>039-047>053-231100-
SOUTHEAST NORTH DAKOTA

CITY           SKY/WX    TMP DP  RH WIND       PRES   REMARKS
FARGO          CLOUDY    48  29  47 SE15      29.93F
JAMESTOWN      LGT RAIN  44  43  96 SE21G29   29.80F
$$




USA.gov is the U.S. government's official web portal to all federal, state and local government web resources and services.